[[{"header":{"parameterUnit":"m.s-1","parameterCategory":1,"la1":30.2991,"la2":30.254,"lo1":-89.0895,"lo2":-89.0444,"dy":0.0017,"dx":0.0017,"nx":28,"ny":28,"refTime":"2025-05-27T03:00:00:Z","depth":0,"parameterNumber":2,"parameterNumberName":"U-component_of_WINDS"},"data":[0,0,0,0,0,0,0,0,0,0,0,0,0,0,0,0,0,0,0,0,0,0,0,0,0,0,0,0,0,0,0,0,0,0,0,0,0,0,0,0,0,0,0,0,0,0,0,0,0,0,0,0,0,0,0,0,0,0,1.7675,1.7676,0,1.7776,1.7777,1.7778,1.777,1.7769,1.7767,1.7766,1.7868,1.7872,1.7876,0,0,0,0,0,0,0,0,0,0,0,0,0,1.7473,1.7477,1.7675,1.7676,1.7677,1.7775,1.7777,1.7778,1.7771,1.7769,1.7767,1.7765,1.7866,1.7871,1.7876,0,0,0,0,0,0,0,0,0,0,0,0,0,1.7566,1.7478,1.7675,1.7686,1.7688,1.7775,1.7777,1.7779,1.7771,1.7769,1.7767,1.7764,1.7865,1.7871,1.7877,1.796,0,0,1.7896,1.7898,0,0,0,0,0,0,0,0,1.7561,1.7573,1.7683,1.7685,1.7687,1.7758,1.7743,1.7839,1.7772,1.7739,1.7766,1.7763,1.7833,1.7842,1.7865,1.7965,1.7969,1.7896,1.79,1.7903,1.7904,0,0,0,0,0,0,0,1.7554,1.7569,1.7715,1.7684,1.7687,1.7684,1.7695,1.7761,1.7797,1.7742,1.7742,1.7754,1.7834,1.7859,1.7868,1.797,1.7896,1.7901,1.7905,1.7908,1.8139,1.8142,0,0,0,0,0,0,1.7546,1.7564,1.7711,1.7718,1.7617,1.769,1.7702,1.7738,1.7797,1.7804,1.7756,1.7753,1.785,1.7861,1.7871,1.797,1.7903,1.7908,1.7912,1.8137,1.814,1.8142,0,0,0,0,0,0,1.7541,1.7559,1.7707,1.7641,1.7659,1.7696,1.7736,1.7741,1.7766,1.7807,1.7813,1.7775,1.7849,1.7863,1.7937,1.7973,1.7911,1.7917,1.8134,1.8138,1.8141,1.8169,0,0,0,0,0,0,1.7536,1.7558,1.759,1.7642,1.7663,1.7773,1.7738,1.7744,1.7777,1.7775,1.7827,1.7834,1.7848,1.7928,1.7943,1.7981,1.7921,1.8131,1.8136,1.814,1.8165,1.8173,1.818,0,0,0,0,0,1.7529,1.7595,1.7592,1.761,1.7705,1.7775,1.7787,1.7802,1.778,1.7813,1.7838,1.7832,1.7967,1.7936,1.7953,1.7993,1.8129,1.8134,1.814,1.8162,1.8172,1.818,0,0,0,0,0,0,1.7547,1.7602,1.7599,1.7684,1.7725,1.7773,1.7815,1.7813,1.7861,1.7856,1.7873,1.7885,1.7959,1.7984,1.7948,1.8074,1.8045,1.8054,1.8056,1.8065,1.8073,1.8065,1.7927,0,0,0,0,0,1.7561,1.7614,1.7658,1.7729,1.7749,1.7779,1.781,1.7818,1.7861,1.7878,1.7909,1.795,1.8001,1.8035,1.8085,1.8169,1.8179,1.8204,1.8212,1.8218,1.8225,1.8268,1.828,1.8161,1.8161,1.816,0,0,1.759,1.7626,1.7659,1.7733,1.7766,1.7819,1.7793,1.7851,1.789,1.7887,1.7958,1.7982,1.8029,1.8108,1.8144,1.8131,1.826,1.8225,1.823,1.8234,1.8275,1.8286,1.8296,1.8164,1.8164,1.8163,0,0,1.7669,1.7703,1.7764,1.7797,1.7846,1.7865,1.788,1.7929,1.7944,1.8017,1.8014,1.8061,1.815,1.8182,1.8211,1.83,1.8295,1.8316,1.8355,1.8397,1.8407,1.8415,1.8444,1.8455,1.8324,1.8324,1.8324,0,1.7699,1.7779,1.7796,1.7853,1.7885,1.7884,1.7945,1.7976,1.8039,1.806,1.8044,1.8154,1.8186,1.8271,1.8292,1.8316,1.8332,1.831,1.8404,1.8413,1.8421,1.8449,1.846,1.8326,1.8326,1.8325,1.8325,0,1.7812,1.7868,1.7911,1.7971,1.8008,1.8067,1.8091,1.8126,1.8131,1.8151,1.8223,1.8261,1.8317,1.8338,1.8344,1.8423,1.8413,1.8401,1.8371,1.8434,1.846,1.8471,1.8329,1.8328,1.8327,1.8327,0,0,1.7906,1.7973,1.7988,1.8015,1.8068,1.8111,1.8169,1.8224,1.8253,1.8296,1.8344,1.8418,1.8406,1.8438,1.8448,1.8485,1.855,1.8467,1.8469,1.8479,1.8637,1.8644,1.8656,1.8548,1.855,1.8552,1.8632,0,1.7988,1.8092,1.8107,1.8197,1.8247,1.8247,1.8297,1.8335,1.8355,1.8399,1.8421,1.8472,1.8454,1.8473,1.851,1.8534,1.8581,1.8529,1.859,1.8592,1.8576,1.8671,1.8679,1.8753,1.8643,1.8644,1.8646,0,1.8099,1.8145,1.824,1.8284,1.8306,1.8351,1.8401,1.8445,1.8486,1.8498,1.8533,1.8537,1.8596,1.8565,1.8644,1.8608,1.8634,1.8649,1.8652,1.8657,1.8621,1.8675,1.8777,1.8787,1.8663,1.8661,1.866,0,1.8154,1.824,1.8307,1.833,1.8384,1.8415,1.8439,1.8479,1.851,1.8554,1.8574,1.8624,1.8651,1.8689,1.8706,1.8683,1.8784,1.8755,1.8793,1.8793,1.8813,1.8811,1.8918,1.8834,1.8833,1.8833,1.8833,0,1.8244,1.8301,1.8332,1.8373,1.8437,1.8453,1.8516,1.8539,1.8574,1.8618,1.8621,1.8663,1.8684,1.8728,1.8742,1.8803,1.8816,1.8826,1.8828,1.8825,1.8823,1.884,1.8835,1.8836,1.8836,1.8835,1.8834,0,1.8316,1.8339,1.8411,1.8457,1.8469,1.8514,1.8552,1.8591,1.8611,1.8667,1.8681,1.8711,1.8763,1.8784,1.8848,1.8857,1.8927,1.8927,1.8913,1.8913,1.895,1.8945,1.907,1.9086,1.8993,1.8994,1.8994,0,1.837,1.8414,1.8464,1.8494,1.8519,1.8568,1.8599,1.8617,1.8649,1.8699,1.8732,1.8784,1.8826,1.8908,1.8935,1.8984,1.8983,1.9023,1.899,1.8984,1.898,1.8977,1.898,1.9029,1.903,1.903,1.9031,0,1.8464,1.8472,1.8518,1.8567,1.8605,1.8644,1.8683,1.8707,1.873,1.8767,1.882,1.8852,1.8917,1.8967,1.9017,1.904,1.9039,1.9042,1.9052,1.9048,1.9037,1.904,1.8927,1.9038,1.9037,1.9037,1.9037,1.9036,1.8527,1.8565,1.8605,1.8655,1.8686,1.8721,1.8759,1.8783,1.8828,1.8882,1.889,1.8946,1.8984,1.905,1.9076,1.9119,1.9108,1.9125,1.9129,1.9132,1.9133,1.9031,1.9128,1.9128,1.9128,1.9128,1.9128,0,1.8618,1.8644,1.869,1.8743,1.8782,1.8778,1.882,1.8852,1.8901,1.8938,1.8979,1.9039,1.9087,1.9118,1.9166,1.9195,1.9195,1.9207,1.9204,1.9209,1.9141,1.9126,1.9206,1.9206,1.9206,1.9205,1.9205,1.9205,1.867,1.8733,1.8746,1.8824,1.8849,1.8904,1.8928,1.896,1.8989,1.9055,1.9096,1.9116,1.9149,1.92,1.9244,1.9251,1.9268,1.928,1.9286,1.9222,1.9214,1.9206,1.9191,1.9284,1.9284,1.935,1.935,1.9351]},{"header":{"parameterUnit":"m.s-1","parameterCategory":1,"la1":30.2991,"la2":30.254,"lo1":-89.0895,"lo2":-89.0444,"dy":0.0017,"dx":0.0017,"nx":28,"ny":28,"refTime":"2025-05-27T03:00:00:Z","depth":0,"parameterNumber":3,"parameterNumberName":"V-component_of_WINDS"},"data":[0,0,0,0,0,0,0,0,0,0,0,0,0,0,0,0,0,0,0,0,0,0,0,0,0,0,0,0,0,0,0,0,0,0,0,0,0,0,0,0,0,0,0,0,0,0,0,0,0,0,0,0,0,0,0,0,0,0,3.1225,3.1226,0,3.1373,3.1375,3.1376,3.1381,3.1379,3.1377,3.1375,3.1522,3.1527,3.1533,0,0,0,0,0,0,0,0,0,0,0,0,0,3.0939,3.0944,3.1225,3.1226,3.1228,3.1373,3.1375,3.1377,3.1381,3.1379,3.1377,3.1375,3.152,3.1527,3.1533,0,0,0,0,0,0,0,0,0,0,0,0,0,3.1072,3.0946,3.1224,3.1248,3.1252,3.1372,3.1375,3.1377,3.1381,3.1379,3.1376,3.1374,3.1518,3.1526,3.1534,3.164,0,0,3.156,3.1563,0,0,0,0,0,0,0,0,3.1065,3.1083,3.1243,3.1247,3.1251,3.1356,3.1328,3.1465,3.1382,3.1332,3.1375,3.1372,3.1468,3.1481,3.1514,3.1646,3.1653,3.156,3.1566,3.1569,3.1572,0,0,0,0,0,0,0,3.1056,3.1077,3.1283,3.1245,3.125,3.1249,3.1265,3.1354,3.1413,3.1336,3.1337,3.1355,3.147,3.1506,3.1518,3.1655,3.156,3.1568,3.1573,3.1576,3.1879,3.1881,0,0,0,0,0,0,3.1042,3.1069,3.1278,3.1288,3.115,3.1256,3.1274,3.1325,3.1412,3.1423,3.1357,3.1354,3.1493,3.1508,3.1523,3.1651,3.1569,3.1577,3.1582,3.1876,3.1879,3.1882,0,0,0,0,0,0,3.1036,3.1061,3.1272,3.1179,3.1205,3.1264,3.1321,3.1329,3.1365,3.1428,3.1438,3.1383,3.1492,3.1511,3.161,3.1656,3.1581,3.1588,3.1872,3.1877,3.1881,3.1908,0,0,0,0,0,0,3.1028,3.1059,3.1101,3.118,3.121,3.136,3.1324,3.1334,3.138,3.1378,3.1455,3.1465,3.1491,3.1598,3.1619,3.1666,3.1595,3.1868,3.1874,3.1879,3.1903,3.1913,3.1921,0,0,0,0,0,3.1018,3.1102,3.1103,3.1129,3.1265,3.1362,3.138,3.1409,3.1384,3.1426,3.1466,3.1463,3.1648,3.1608,3.1632,3.1682,3.1865,3.1872,3.1879,3.1899,3.1911,3.1921,0,0,0,0,0,0,3.1027,3.1113,3.1115,3.1228,3.1288,3.1363,3.1417,3.1421,3.1488,3.1483,3.1515,3.1532,3.163,3.1666,3.162,3.1787,3.1753,3.1765,3.1761,3.1772,3.1781,3.177,3.1602,0,0,0,0,0,3.1042,3.1116,3.1187,3.1279,3.1309,3.1358,3.1401,3.1419,3.1481,3.1506,3.1553,3.1613,3.1684,3.173,3.1799,3.1908,3.1924,3.1954,3.1963,3.197,3.198,3.2038,3.2052,3.1905,3.1905,3.1905,0,0,3.1074,3.113,3.1175,3.1282,3.1331,3.1404,3.1379,3.1458,3.1513,3.1518,3.1615,3.1651,3.1719,3.1823,3.1872,3.1856,3.2024,3.1979,3.1984,3.199,3.2047,3.2061,3.2073,3.1909,3.1909,3.1908,0,0,3.1169,3.122,3.1302,3.1351,3.1425,3.1457,3.1476,3.1551,3.1576,3.1674,3.1679,3.1742,3.1865,3.1913,3.1953,3.2065,3.2064,3.2086,3.2133,3.2189,3.2201,3.2211,3.225,3.2263,3.2096,3.2096,3.2096,0,3.1199,3.1312,3.1343,3.1423,3.1469,3.1478,3.156,3.1605,3.1697,3.1728,3.171,3.1863,3.1909,3.2024,3.2051,3.2084,3.2105,3.2078,3.2197,3.2208,3.2218,3.2255,3.2269,3.2098,3.2098,3.2097,3.2097,0,3.1344,3.1422,3.1479,3.157,3.1622,3.1702,3.1743,3.1792,3.1804,3.1837,3.1935,3.1991,3.2071,3.2099,3.2112,3.2215,3.2203,3.2191,3.2157,3.2234,3.2269,3.2283,3.2101,3.21,3.21,3.2099,0,0,3.145,3.1556,3.1576,3.1617,3.1698,3.1758,3.1837,3.1917,3.1958,3.202,3.2086,3.2189,3.2177,3.2223,3.224,3.229,3.2373,3.2271,3.2273,3.2287,3.2489,3.2497,3.2513,3.2373,3.2376,3.2378,3.2483,0,3.1554,3.1698,3.1727,3.185,3.1922,3.193,3.1999,3.2055,3.2087,3.2151,3.2185,3.2257,3.2237,3.2265,3.2314,3.2353,3.2414,3.2345,3.2433,3.2436,3.2415,3.2532,3.2542,3.2638,3.2497,3.2499,3.2501,0,3.1695,3.1762,3.1893,3.1964,3.1994,3.2056,3.213,3.2192,3.2254,3.2274,3.2325,3.2336,3.2416,3.2379,3.2488,3.2441,3.2478,3.2502,3.2507,3.2515,3.2473,3.2543,3.2669,3.2683,3.2523,3.2521,3.252,0,3.1757,3.188,3.1974,3.2008,3.2094,3.2137,3.2174,3.2234,3.2279,3.2343,3.2373,3.2445,3.2484,3.2538,3.2568,3.2538,3.2675,3.264,3.2691,3.2691,3.272,3.2717,3.2853,3.2745,3.2745,3.2744,3.2744,0,3.187,3.1949,3.2003,3.2061,3.2149,3.2181,3.2267,3.2303,3.2356,3.2419,3.2431,3.2489,3.2525,3.2588,3.2612,3.2698,3.2715,3.2732,3.2737,3.2731,3.2729,3.2755,3.2749,3.2748,3.2747,3.2747,3.2746,0,3.1955,3.1995,3.2097,3.217,3.2189,3.2251,3.2312,3.2367,3.2399,3.2478,3.2498,3.2548,3.2622,3.2657,3.2749,3.2765,3.2862,3.2863,3.2842,3.2844,3.2893,3.2887,3.305,3.3072,3.295,3.2951,3.2952,0,3.2024,3.2085,3.2164,3.2208,3.2246,3.2317,3.2363,3.2396,3.2443,3.2519,3.2564,3.2639,3.2701,3.2819,3.2862,3.2932,3.2934,3.2986,3.2944,3.2935,3.2933,3.2929,3.2935,3.2993,3.2994,3.2995,3.2996,0,3.2141,3.2158,3.2225,3.2299,3.2355,3.2414,3.2473,3.2507,3.2549,3.2601,3.2678,3.2726,3.282,3.2894,3.2967,3.3002,3.3006,3.3009,3.3024,3.3018,3.3003,3.3011,3.2861,3.3005,3.3004,3.3003,3.3003,3.3003,3.222,3.2274,3.2338,3.2412,3.246,3.2514,3.2569,3.2607,3.2673,3.2753,3.2768,3.2849,3.2908,3.3006,3.3044,3.3106,3.3094,3.3117,3.3122,3.3127,3.313,3.2993,3.312,3.312,3.3119,3.3119,3.3119,0,3.2337,3.2378,3.2446,3.2528,3.2586,3.2585,3.2649,3.2697,3.2769,3.2825,3.2886,3.2973,3.3044,3.3092,3.3164,3.3205,3.3208,3.3222,3.3219,3.3227,3.3137,3.3116,3.3219,3.3219,3.3219,3.3218,3.3218,3.3218,3.2404,3.2496,3.252,3.2634,3.2674,3.2756,3.2792,3.2841,3.2885,3.2983,3.3043,3.3074,3.3126,3.3201,3.3266,3.3278,3.3303,3.3318,3.3329,3.3244,3.3234,3.3224,3.3204,3.3323,3.3323,3.3414,3.3415,3.3415]}]]